Hourly Data Report for May 10, 2020

TORONTO CITY
ONTARIO
Current Station Operator: ECCC - MSC

43°40'00.000" N
79°24'00.000" W
112.50 m
6158355
71508
XTO

Download Data

Hourly Data (May 2020)
Hourly Data Report for May 10, 2020
TIME
LST
Temp Definition
°C
Dew Point Definition
°C
Rel Hum Definition
%
Precip. Amount Definition
mm

Wind Dir Definition
10's deg

Wind Spd Definition
km/h
Visibility Definition
km
Stn Press Definition
kPa
Hmdx Definition


Wind Chill Definition


Weather Definition


00:00 2.9 -4.8 57 0.0       100.28     LegendNANA
01:00 3.5 -5.2 53 0.0       100.30     LegendNANA
02:00 3.5 -5.3 52 0.0       100.30     LegendNANA
03:00 3.4 -5.3 53 0.0       100.26     LegendNANA
04:00 2.4 -5.4 56 0.0       100.21     LegendNANA
05:00 1.7 -5.5 59 0.0       100.22     LegendNANA
06:00 2.1 -4.9 60 0.0       100.22     LegendNANA
07:00 3.7 -5.1 52 0.0       100.24     LegendNANA
08:00 4.8 -4.3 52 0.0       100.19     LegendNANA
09:00 5.2 -5.3 47 0.0       100.21     LegendNANA
10:00 5.4 -4.9 47 0.0       100.18     LegendNANA
11:00 5.3 -1.5 62 0.0       100.19     LegendNANA
12:00 6.5 -0.2 62 0.0       100.10     LegendNANA
13:00 7.6 -0.1 58 0.0       100.04     LegendNANA
14:00 8.8 -0.3 53 0.0       99.99     LegendNANA
15:00 9.3 1.5 58 0.0       99.96     LegendNANA
16:00 8.8 1.0 58 0.0       99.91     LegendNANA
17:00 8.3 0.5 58 0.0       99.94     LegendNANA
18:00 7.2 2.0 70 0.2       99.92     LegendNANA
19:00 7.2 1.5 67 0.0       99.90     LegendNANA
20:00 6.9 2.0 71 0.0       99.90     LegendNANA
21:00 6.5 1.9 72 0.0       99.91     LegendNANA
22:00 5.9 1.4 73 0.0       99.87     LegendNANA
23:00 5.3 0.8 72 0.0       99.86     LegendNANA

Notes on Data Quality.

Legend

  • E = Estimated
  • M = Missing
  • NA = Not Available*
  • [empty] = Indicates an unobserved value
Date modified: